Location: Newark
(42.7133°N, 87.7910°W)
Time: 02:15:27
(UTC+00:00)

Envisat - Pass Details

Date: 29 August 2019
Orbit: 764 x 766 km, 98.1° (Epoch: 23 October)

Event Time Altitude Azimuth Distance (km) Brightness Sun altitude
Rises 01:16:55 0° 207° (SSW) 3,219 6.3 -8.6°
Reaches altitude 10° 01:19:56 10° 227° (SW) 2,299 5.8 -9.1°
Maximum altitude 01:23:20 18° 269° (W) 1,819 6.0 -9.7°
Drops below altitude 10° 01:26:44 10° 311° (NW) 2,311 6.8 -10.3°
Sets 01:29:49 0° 331° (NNW) 3,243 7.2 -10.8°
